Versailles, OH

10:16 PM EST on November 13, 2019 (GMT -0500)
Darke County

Weather History for KVES - October, 2019

Change the Weather History Date:

Monday, October 21, 2019

  Actual Average (WUND) Record (WUND)
Temperature  
Mean Temperature 58 °F -  
Max Temperature 64 °F - - (-1)
Min Temperature 51 °F - - (-1)
Degree Days  
Heating Degree Days 8    
Growing Degree Days 8 (Base 50)    
Moisture  
Dew Point 54 °F    
Average Humidity 89    
Maximum Humidity 100    
Minimum Humidity 62    
Precipitation  
Precipitation 0.49 in - - ()
Sea Level Pressure  
Sea Level Pressure 29.80 in    
Wind  
Wind Speed 8 mph ()    
Max Wind Speed 17 mph    
Max Gust Speed 25 mph    
Visibility 7.8 miles    
Events Fog , Rain , Thunderstorm    
Averages and records for this station are not official NWS values.
T = Trace of Precipitation, MM = Missing Value Source: Averaged Metar Reports

Daily Weather History Graph

Daily Weather History Graph

Search for Another Location

Airport or City:

Astronomy

Oct. 21, 2019 Rise Set
Actual Time 7:54 AM EDT 6:49 PM EDT
Civil Twilight 7:27 AM EDT 7:17 PM EDT
Nautical Twilight 6:55 AM EDT 7:49 PM EDT
Astronomical Twilight 6:24 AM EDT 8:20 PM EDT
Moon No Moon Rise 3:12 PM EDT (10/21)
Length of Visible Light 11h 50m
Length of Day
10h 54m
Waning Gibbous, 48% of the Moon is Illuminated
Oct 21
Waning Gibbous
Oct 27
New
Nov 4
First Quarter
Nov 12
Full
Nov 19
Last Quarter

Hourly Weather History & Observations

Time (EDT) Temp. Dew Point Humidity Pressure Visibility Wind Dir Wind Speed Gust Speed Precip Events Conditions
12:15 AM 53.6 °F 41.0 °F 62% 29.94 in 10.0 mi ESE 3.5 mph - N/A   Clear
12:35 AM 53.6 °F 41.0 °F 62% 29.94 in 10.0 mi SE 3.5 mph - N/A   Clear
12:55 AM 51.8 °F 42.8 °F 71% 29.93 in 10.0 mi SE 4.6 mph - N/A   Clear
1:15 AM 51.8 °F 44.6 °F 76% 29.93 in 10.0 mi SSE 3.5 mph - N/A   Clear
1:35 AM 51.8 °F 44.6 °F 76% 29.93 in 10.0 mi SE 4.6 mph - N/A   Clear
1:55 AM 51.8 °F 48.2 °F 88% 29.92 in 10.0 mi SE 4.6 mph - N/A   Clear
2:15 AM 51.8 °F 50.0 °F 94% 29.91 in 10.0 mi SE 4.6 mph - N/A   Clear
2:35 AM 51.8 °F 50.0 °F 94% 29.92 in 10.0 mi SE 5.8 mph - N/A   Clear
2:55 AM 51.8 °F 51.8 °F 100% 29.92 in 10.0 mi SE 5.8 mph - N/A   Clear
3:15 AM 53.6 °F 51.8 °F 94% 29.91 in 7.0 mi SE 6.9 mph - N/A   Scattered Clouds
3:35 AM 51.8 °F 51.8 °F 100% 29.90 in 7.0 mi SE 8.1 mph - N/A   Scattered Clouds
3:55 AM 53.6 °F 51.8 °F 94% 29.89 in 7.0 mi ESE 4.6 mph - N/A   Clear
4:15 AM 53.6 °F 51.8 °F 94% 29.89 in 5.0 mi SE 5.8 mph - N/A   Clear
4:35 AM 53.6 °F 53.6 °F 100% 29.90 in 5.0 mi SE 6.9 mph - N/A   Mostly Cloudy
4:55 AM 53.6 °F 53.6 °F 100% 29.91 in 3.0 mi SSE 5.8 mph - N/A   Overcast
5:15 AM 53.6 °F 53.6 °F 100% 29.90 in 1.0 mi SSE 6.9 mph - N/A   Overcast
5:35 AM 53.6 °F 53.6 °F 100% 29.90 in 0.8 mi SSE 5.8 mph - N/A   Overcast
5:55 AM 53.6 °F 53.6 °F 100% 29.90 in 0.5 mi SSE 8.1 mph - N/A Fog Fog
6:15 AM 53.6 °F 53.6 °F 100% 29.89 in 0.5 mi SSE 9.2 mph - N/A Fog Fog
6:35 AM 53.6 °F 53.6 °F 100% 29.88 in 0.5 mi SE 9.2 mph - N/A Fog Fog
6:55 AM 53.6 °F 53.6 °F 100% 29.87 in 0.2 mi SE 9.2 mph - N/A Fog Fog
7:15 AM 53.6 °F 53.6 °F 100% 29.87 in 0.5 mi SE 9.2 mph - N/A Fog Fog
7:35 AM 53.6 °F 53.6 °F 100% 29.86 in 0.8 mi SE 12.7 mph 16.1 mph N/A   Overcast
7:55 AM 53.6 °F 53.6 °F 100% 29.87 in 0.5 mi SSE 12.7 mph 17.3 mph N/A Fog Fog
8:15 AM 53.6 °F 53.6 °F 100% 29.85 in 1.5 mi SE 10.4 mph - N/A   Overcast
8:35 AM 53.6 °F 53.6 °F 100% 29.86 in 2.0 mi SSE 12.7 mph 17.3 mph N/A   Overcast
8:55 AM 55.4 °F 55.4 °F 100% 29.87 in 3.0 mi SE 13.8 mph 18.4 mph N/A   Overcast
9:15 AM 55.4 °F 55.4 °F 100% 29.86 in 10.0 mi SE 17.3 mph 21.9 mph N/A   Overcast
9:35 AM 55.4 °F 55.4 °F 100% 29.84 in 10.0 mi SE 15.0 mph 21.9 mph N/A   Overcast
9:55 AM 57.2 °F 57.2 °F 100% 29.81 in 10.0 mi SE 15.0 mph 23.0 mph N/A   Overcast
10:15 AM 59.0 °F 57.2 °F 94% 29.82 in 10.0 mi SE 16.1 mph 23.0 mph N/A   Overcast
10:35 AM 59.0 °F 55.4 °F 88% 29.82 in 10.0 mi SSE 13.8 mph 23.0 mph N/A   Overcast
10:55 AM 59.0 °F 55.4 °F 88% 29.81 in 10.0 mi SSE 12.7 mph 21.9 mph N/A   Mostly Cloudy
11:15 AM 59.0 °F 55.4 °F 88% 29.79 in 10.0 mi SSE 15.0 mph 21.9 mph N/A Rain Light Rain
11:35 AM 59.0 °F 55.4 °F 88% 29.81 in 10.0 mi SSE 12.7 mph 23.0 mph N/A Rain , Thunderstorm Light Thunderstorms and Rain
11:55 AM 59.0 °F 55.4 °F 88% 29.81 in 10.0 mi SSE 13.8 mph 21.9 mph N/A Rain Light Rain
12:15 PM 59.0 °F 55.4 °F 88% 29.80 in 2.5 mi SE 8.1 mph - 0.13 in   Overcast
12:35 PM 57.2 °F 55.4 °F 94% 29.80 in 7.0 mi SE 6.9 mph - 0.18 in   Overcast
12:55 PM 57.2 °F 55.4 °F 94% 29.79 in 2.5 mi SE 11.5 mph - 0.36 in Rain , Thunderstorm Thunderstorms and Rain
1:15 PM 55.4 °F 55.4 °F 100% 29.78 in 7.0 mi SE 10.4 mph - 0.06 in Rain , Thunderstorm Rain
1:35 PM 57.2 °F 57.2 °F 100% 29.76 in 5.0 mi SE 12.7 mph - 0.11 in Rain Light Rain
1:55 PM 59.0 °F 59.0 °F 100% 29.73 in 10.0 mi SE 12.7 mph - 0.11 in   Mostly Cloudy
2:15 PM 59.0 °F 59.0 °F 100% 29.72 in 10.0 mi SE 11.5 mph 21.9 mph N/A   Scattered Clouds
2:35 PM 59.0 °F 59.0 °F 100% 29.69 in 10.0 mi SE 13.8 mph 25.3 mph N/A   Light Drizzle
2:55 PM 60.8 °F 59.0 °F 94% 29.70 in 10.0 mi South 8.1 mph - N/A   Mostly Cloudy
3:15 PM 60.8 °F 59.0 °F 94% 29.70 in 10.0 mi South 10.4 mph 23.0 mph N/A   Overcast
3:35 PM 62.6 °F 60.8 °F 94% 29.70 in 10.0 mi South 12.7 mph 17.3 mph N/A   Overcast
3:55 PM 62.6 °F 60.8 °F 94% 29.70 in 10.0 mi SSE 12.7 mph 20.7 mph N/A   Scattered Clouds
4:15 PM 62.6 °F 60.8 °F 94% 29.69 in 10.0 mi SSE 13.8 mph 19.6 mph N/A   Mostly Cloudy
4:35 PM 64.4 °F 60.8 °F 88% 29.69 in 10.0 mi South 10.4 mph 25.3 mph N/A   Overcast
4:55 PM 64.4 °F 59.0 °F 83% 29.69 in 10.0 mi South 9.2 mph - N/A   Overcast
5:15 PM 64.4 °F 59.0 °F 83% 29.70 in 10.0 mi South 10.4 mph 16.1 mph N/A   Light Drizzle
5:35 PM 64.4 °F 57.2 °F 77% 29.70 in 10.0 mi SSW 10.4 mph 19.6 mph N/A Rain Light Rain
5:55 PM 64.4 °F 55.4 °F 73% 29.69 in 10.0 mi South 9.2 mph 21.9 mph N/A Rain Light Rain
6:15 PM 64.4 °F 55.4 °F 73% 29.68 in 10.0 mi South 9.2 mph 19.6 mph 0.01 in Rain Light Rain
6:35 PM 64.4 °F 55.4 °F 73% 29.67 in 10.0 mi South 15.0 mph 23.0 mph 0.01 in Rain Light Rain
6:55 PM 64.4 °F 55.4 °F 73% 29.67 in 10.0 mi South 12.7 mph 20.7 mph 0.01 in Rain Light Rain
7:15 PM 62.6 °F 55.4 °F 77% 29.69 in 10.0 mi SSW 10.4 mph 20.7 mph N/A   Drizzle
7:35 PM 62.6 °F 55.4 °F 77% 29.70 in 10.0 mi South 13.8 mph 23.0 mph 0.01 in Rain Light Rain
7:55 PM 62.6 °F 55.4 °F 77% 29.70 in 10.0 mi South 11.5 mph 24.2 mph 0.01 in   Mostly Cloudy
8:15 PM 62.6 °F 53.6 °F 72% 29.70 in 10.0 mi South 12.7 mph 20.7 mph N/A   Clear
8:35 PM 62.6 °F 53.6 °F 72% 29.71 in 10.0 mi South 10.4 mph 18.4 mph N/A   Scattered Clouds
8:55 PM 62.6 °F 51.8 °F 68% 29.70 in 10.0 mi South 15.0 mph 23.0 mph N/A   Scattered Clouds
9:15 PM 60.8 °F 53.6 °F 77% 29.71 in 10.0 mi South 11.5 mph 18.4 mph N/A   Mostly Cloudy
9:35 PM 60.8 °F 55.4 °F 82% 29.71 in 10.0 mi South 12.7 mph 17.3 mph N/A   Overcast
9:55 PM 60.8 °F 55.4 °F 82% 29.71 in 10.0 mi SSW 11.5 mph 18.4 mph N/A   Overcast
10:15 PM 60.8 °F 55.4 °F 82% 29.71 in 10.0 mi South 9.2 mph 21.9 mph N/A   Overcast
10:35 PM 60.8 °F 55.4 °F 82% 29.71 in 10.0 mi South 8.1 mph 23.0 mph N/A   Mostly Cloudy
10:55 PM 60.8 °F 55.4 °F 82% 29.72 in 10.0 mi South 10.4 mph 17.3 mph N/A   Mostly Cloudy
11:15 PM 60.8 °F 55.4 °F 82% 29.71 in 10.0 mi South 10.4 mph 19.6 mph N/A   Mostly Cloudy
11:35 PM 60.8 °F 55.4 °F 82% 29.73 in 10.0 mi SSW 13.8 mph 20.7 mph N/A   Overcast
11:55 PM 60.8 °F 55.4 °F 82% 29.72 in 10.0 mi SSW 9.2 mph 17.3 mph N/A   Overcast